Content
SEND FEEDBACK

Daily
Averages
Monthly
Summary
United States of America

NEW YORK - UPPER EAST SIDE, NEW YORK


Home > North America > United States > New York
Elevation: 132 feet     Latitude: 40 47N     Longitude: 073 58W

WEATHER
 
SELECT A DAY
Number of Records: 148,039;   Date Range: 11/1/95 - 7/23/14
 
SHARE

PRINT THIS DATA

[ ← Previous Day ]
WEATHER ALMANAC - FEBRUARY 3, 2013
[ Next Day → ]
[ °C ]   °F
Weather ElementAverageHighLow
Temperature26.8 °F30 °F (3:51 pm)25 °F (1:07 am)
Dewpoint18.2 °F21 °F (1:58 am)14 °F (5:51 pm)
Humidity70.8 %85 % (1:58 am)54 % (4:51 pm)
Barometer29.90 in30.04 in (1:07 am)29.79 in (3:51 pm)
Wind Speed3 mph8.1 mph (11:51 pm)
Weather ElementAverage
Visibility7.9 mi
Wind DirectionENE (73 °)

Weather ElementTotal
Precipitation0.01 in
Heating Degree Days37.5 (Base 65)
Averaged from 27 records on February 3, 2013
WEATHER CONDITIONS BREAKOUT
WIND DIRECTION BREAKOUT
WEATHER BY HOUR - FEBRUARY 3, 2013
[ °C ]   °F
Local TimeTemperatureDewpointHumidityBarometerVisibilityWind DirectionWind SpeedGust SpeedPrecipitationEventsConditions
1:07 AM25.0 °F19.9 °F81 %30.04 in4.0 miCalmHaze
1:51 AM25.0 °F19.9 °F81 %30.01 in2.5 miCalm0.00 inSnowLight Snow
1:58 AM25.0 °F21.0 °F85 %30.03 in3.0 miCalm0.00 inOvercast
2:29 AM25.0 °F21.0 °F85 %30.02 in2.5 miCalm0.00 inSnowLight Snow
2:51 AM26.1 °F21.0 °F81 %29.99 in2.0 miCalm0.00 inSnowLight Snow
3:03 AM25.0 °F21.0 °F85 %30.00 in3.0 miCalm0.00 inOvercast
3:51 AM26.1 °F21.0 °F81 %29.96 in7.0 miCalm0.01 inOvercast
4:51 AM26.1 °F19.9 °F78 %29.94 in6.0 miVariable3.5 mphHaze
5:51 AM25.0 °F19.0 °F78 %29.94 in10.0 miVariable3.5 mphOvercast
6:51 AM25.0 °F19.0 °F78 %29.94 in10.0 miNE (50°)5.8 mphOvercast
7:51 AM25.0 °F18.0 °F75 %29.96 in10.0 miENE (60°)5.8 mphMostly Cloudy
8:51 AM25.0 °F18.0 °F75 %29.94 in10.0 miNE (50°)4.6 mphMostly Cloudy
9:51 AM26.1 °F19.0 °F75 %29.93 in10.0 miNNE (30°)4.6 mphOvercast
10:51 AM26.1 °F19.0 °F75 %29.92 in8.0 miENE (60°)4.6 mphOvercast
11:51 AM27.0 °F19.0 °F72 %29.88 in9.0 miVariable3.5 mphOvercast
12:51 PM28.0 °F19.0 °F69 %29.84 in10.0 miCalmOvercast
1:51 PM28.9 °F18.0 °F64 %29.82 in10.0 miCalmPartly Cloudy
2:51 PM28.9 °F17.1 °F61 %29.80 in10.0 miNW (320°)4.6 mphScattered Clouds
3:51 PM30.0 °F16.0 °F56 %29.79 in10.0 miWest (280°)6.9 mphPartly Cloudy
4:51 PM30.0 °F15.1 °F54 %29.79 in10.0 miNorthPartly Cloudy
5:51 PM28.9 °F14.0 °F54 %29.80 in10.0 miWNW (300°)6.9 mphMostly Cloudy
6:51 PM28.0 °F15.1 °F58 %29.80 in10.0 miCalmClear
7:51 PM28.0 °F15.1 °F58 %29.81 in10.0 miWNW (290°)5.8 mphClear
8:51 PM28.0 °F16.0 °F61 %29.82 in10.0 miVariable5.8 mphClear
9:51 PM27.0 °F16.0 °F63 %29.81 in10.0 miWest (280°)4.6 mphClear
10:51 PM28.0 °F17.1 °F63 %29.81 in9.0 miCalmOvercast
11:51 PM28.0 °F18.0 °F66 %29.80 in8.0 miWSW (250°)8.1 mphOvercast
Hourly data recorded from KNYC, located miles away from New York - Upper East Side, New York







STORIES FROM OUR PARTNERS